Time,TemperatureF,DewpointF,PressureIn,WindDirection,WindDirectionDegrees,WindSpeedMPH,WindSpeedGustMPH,Humidity,HourlyPrecipIn,Conditions,Clouds,dailyrainin,SolarRadiationWatts/m^2,SoftwareType,DateUTC
2013-01-12 00:02:00,32.0,-51.0,-100.00,WNW,294,13.0,24.0,0,0.00,,,0.02,0.000000,,2013-01-12 06:02:00,
2013-01-12 00:11:00,32.0,-51.0,-100.00,WNW,298,15.0,29.0,0,0.00,,,0.02,0.000000,,2013-01-12 06:11:00,
2013-01-12 00:33:00,32.0,-51.0,-100.00,WNW,298,15.0,29.0,0,0.00,,,0.02,0.000000,,2013-01-12 06:33:00,
2013-01-12 00:43:00,32.0,-51.0,-100.00,WNW,298,15.0,29.0,0,0.00,,,0.02,0.000000,,2013-01-12 06:43:00,
2013-01-12 00:53:00,32.0,-51.0,-100.00,WNW,298,15.0,29.0,0,0.00,,,0.02,0.000000,,2013-01-12 06:53:00,
2013-01-12 01:02:00,32.0,-51.0,-100.00,WNW,298,15.0,29.0,0,0.00,,,0.02,0.000000,,2013-01-12 07:02:00,
2013-01-12 01:11:00,32.0,-51.0,-100.00,NW,307,13.0,26.0,0,0.00,,,0.02,0.000000,,2013-01-12 07:11:00,
2013-01-12 01:32:00,32.0,-51.0,-100.00,NW,307,13.0,26.0,0,0.00,,,0.02,0.000000,,2013-01-12 07:32:00,
2013-01-12 01:42:00,32.0,-51.0,-100.00,NW,307,13.0,26.0,0,0.00,,,0.02,0.000000,,2013-01-12 07:42:00,
2013-01-12 01:52:00,32.0,-51.0,-100.00,NW,307,13.0,26.0,0,0.00,,,0.02,0.000000,,2013-01-12 07:52:00,
2013-01-12 02:02:00,32.0,-51.0,-100.00,NW,307,13.0,26.0,0,0.00,,,0.02,0.000000,,2013-01-12 08:02:00,
2013-01-12 02:11:00,32.0,-51.0,-100.00,WNW,289,14.0,27.0,0,0.00,,,0.02,0.000000,,2013-01-12 08:11:00,
2013-01-12 02:42:00,32.0,-51.0,-100.00,WNW,289,14.0,27.0,0,0.00,,,0.02,0.000000,,2013-01-12 08:42:00,
2013-01-12 02:53:00,32.0,-51.0,-100.00,WNW,289,14.0,27.0,0,0.00,,,0.02,0.000000,,2013-01-12 08:53:00,
2013-01-12 03:02:00,32.0,-51.0,-100.00,WNW,289,14.0,27.0,0,0.00,,,0.02,0.000000,,2013-01-12 09:02:00,
2013-01-12 03:11:00,32.0,-51.0,-100.00,WNW,299,14.0,27.0,0,0.00,,,0.02,0.000000,,2013-01-12 09:11:00,
2013-01-12 03:32:00,32.0,-51.0,-100.00,WNW,299,14.0,27.0,0,0.00,,,0.02,0.000000,,2013-01-12 09:32:00,
2013-01-12 03:42:00,32.0,-51.0,-100.00,WNW,299,14.0,27.0,0,0.00,,,0.02,0.000000,,2013-01-12 09:42:00,
2013-01-12 03:53:00,32.0,-51.0,-100.00,WNW,299,14.0,27.0,0,0.00,,,0.02,0.000000,,2013-01-12 09:53:00,
2013-01-12 04:02:00,32.0,-51.0,-100.00,WNW,299,14.0,27.0,0,0.00,,,0.02,0.000000,,2013-01-12 10:02:00,
2013-01-12 04:11:00,32.0,-51.0,-100.00,NW,310,15.0,25.0,0,0.00,,,-99.99,0.000000,,2013-01-12 10:11:00,
2013-01-12 04:32:00,32.0,-51.0,-100.00,NW,310,15.0,25.0,0,0.00,,,-99.99,0.000000,,2013-01-12 10:32:00,
2013-01-12 04:43:00,32.0,-51.0,-100.00,NW,310,15.0,25.0,0,0.00,,,-99.99,0.000000,,2013-01-12 10:43:00,
2013-01-12 04:52:00,32.0,-51.0,-100.00,NW,310,15.0,25.0,0,0.00,,,-99.99,0.000000,,2013-01-12 10:52:00,
2013-01-12 05:02:00,32.0,-51.0,-100.00,NW,310,15.0,25.0,0,0.00,,,-99.99,0.000000,,2013-01-12 11:02:00,
2013-01-12 05:11:00,32.0,-51.0,-100.00,WNW,301,11.0,25.0,0,0.00,,,0.02,0.000000,,2013-01-12 11:11:00,
2013-01-12 05:33:00,32.0,-51.0,-100.00,WNW,301,11.0,25.0,0,0.00,,,0.02,0.000000,,2013-01-12 11:33:00,
2013-01-12 05:43:00,32.0,-51.0,-100.00,WNW,301,11.0,25.0,0,0.00,,,0.02,0.000000,,2013-01-12 11:43:00,
2013-01-12 05:53:00,32.0,-51.0,-100.00,WNW,301,11.0,25.0,0,0.00,,,0.02,0.000000,,2013-01-12 11:53:00,
2013-01-12 06:02:00,32.0,-51.0,-100.00,WNW,301,11.0,25.0,0,0.00,,,0.02,0.000000,,2013-01-12 12:02:00,
2013-01-12 06:11:00,32.0,-51.0,-100.00,NW,308,11.0,21.0,0,0.00,,,0.02,0.000000,,2013-01-12 12:11:00,
2013-01-12 06:33:00,32.0,-51.0,-100.00,NW,308,11.0,21.0,0,0.00,,,0.02,0.000000,,2013-01-12 12:33:00,
2013-01-12 06:43:00,32.0,-51.0,-100.00,NW,308,11.0,21.0,0,0.00,,,0.02,0.000000,,2013-01-12 12:43:00,
2013-01-12 06:53:00,32.0,-51.0,-100.00,NW,308,11.0,21.0,0,0.00,,,0.02,0.000000,,2013-01-12 12:53:00,
2013-01-12 07:02:00,32.0,-51.0,-100.00,NW,308,11.0,21.0,0,0.00,,,0.02,0.000000,,2013-01-12 13:02:00,
2013-01-12 07:11:00,32.0,-51.0,-100.00,WNW,296,10.0,21.0,0,0.00,,,0.02,0.000000,,2013-01-12 13:11:00,
2013-01-12 07:33:00,32.0,-51.0,-100.00,WNW,296,10.0,21.0,0,0.00,,,0.02,0.000000,,2013-01-12 13:33:00,
2013-01-12 07:43:00,32.0,-51.0,-100.00,WNW,296,10.0,21.0,0,0.00,,,0.02,0.000000,,2013-01-12 13:43:00,
2013-01-12 07:53:00,32.0,-51.0,-100.00,WNW,296,10.0,21.0,0,0.00,,,0.02,0.000000,,2013-01-12 13:53:00,
2013-01-12 08:02:00,32.0,-51.0,-100.00,WNW,296,10.0,21.0,0,0.00,,,0.02,0.000000,,2013-01-12 14:02:00,
2013-01-12 08:11:00,32.0,-51.0,-100.00,West,281,8.0,16.0,0,0.00,,,0.02,1.000000,,2013-01-12 14:11:00,
2013-01-12 08:33:00,32.0,-51.0,-100.00,West,281,8.0,16.0,0,0.00,,,0.02,1.000000,,2013-01-12 14:33:00,
2013-01-12 08:43:00,32.0,-51.0,-100.00,West,281,8.0,16.0,0,0.00,,,0.02,1.000000,,2013-01-12 14:43:00,
2013-01-12 08:53:00,32.0,-51.0,-100.00,West,281,8.0,16.0,0,0.00,,,0.02,1.000000,,2013-01-12 14:53:00,
2013-01-12 09:03:00,32.0,-51.0,-100.00,West,281,8.0,16.0,0,0.00,,,0.02,1.000000,,2013-01-12 15:03:00,
2013-01-12 09:11:00,32.0,-51.0,-100.00,WNW,291,12.0,19.0,0,0.00,,,0.01,40.000000,,2013-01-12 15:11:00,
2013-01-12 09:33:00,32.0,-51.0,-100.00,WNW,291,12.0,19.0,0,0.00,,,0.01,40.000000,,2013-01-12 15:33:00,
2013-01-12 09:43:00,32.0,-51.0,-100.00,WNW,291,12.0,19.0,0,0.00,,,0.01,40.000000,,2013-01-12 15:43:00,
2013-01-12 09:53:00,32.0,-51.0,-100.00,WNW,291,12.0,19.0,0,0.00,,,0.01,40.000000,,2013-01-12 15:53:00,
2013-01-12 10:03:00,32.0,-51.0,-100.00,WNW,291,12.0,19.0,0,0.00,,,0.01,40.000000,,2013-01-12 16:03:00,
2013-01-12 10:11:00,32.0,-51.0,-100.00,WNW,300,11.0,19.0,0,0.00,,,0.01,115.000000,,2013-01-12 16:11:00,
2013-01-12 10:33:00,32.0,-51.0,-100.00,WNW,300,11.0,19.0,0,0.00,,,0.01,115.000000,,2013-01-12 16:33:00,
2013-01-12 10:43:00,32.0,-51.0,-100.00,WNW,300,11.0,19.0,0,0.00,,,0.01,115.000000,,2013-01-12 16:43:00,
2013-01-12 10:53:00,32.0,-51.0,-100.00,WNW,300,11.0,19.0,0,0.00,,,0.01,115.000000,,2013-01-12 16:53:00,
2013-01-12 11:02:00,32.0,-51.0,-100.00,WNW,300,11.0,19.0,0,0.00,,,0.01,115.000000,,2013-01-12 17:02:00,
2013-01-12 11:11:00,32.0,-51.0,-100.00,NW,305,12.0,19.0,0,0.00,,,0.01,167.000000,,2013-01-12 17:11:00,
2013-01-12 11:33:00,32.0,-51.0,-100.00,NW,305,12.0,19.0,0,0.00,,,0.01,167.000000,,2013-01-12 17:33:00,
2013-01-12 11:43:00,32.0,-51.0,-100.00,NW,305,12.0,19.0,0,0.00,,,0.01,167.000000,,2013-01-12 17:43:00,
2013-01-12 11:53:00,32.0,-51.0,-100.00,NW,305,12.0,19.0,0,0.00,,,0.01,167.000000,,2013-01-12 17:53:00,
2013-01-12 12:03:00,32.0,-51.0,-100.00,NW,305,12.0,19.0,0,0.00,,,0.01,167.000000,,2013-01-12 18:03:00,
2013-01-12 12:11:00,32.0,-51.0,-100.00,NW,309,12.0,21.0,0,0.00,,,0.01,189.000000,,2013-01-12 18:11:00,
2013-01-12 12:33:00,32.0,-51.0,-100.00,NW,309,12.0,21.0,0,0.00,,,0.01,189.000000,,2013-01-12 18:33:00,
2013-01-12 12:43:00,32.0,-51.0,-100.00,NW,309,12.0,21.0,0,0.00,,,0.01,189.000000,,2013-01-12 18:43:00,
2013-01-12 12:53:00,32.0,-51.0,-100.00,NW,309,12.0,21.0,0,0.00,,,0.01,189.000000,,2013-01-12 18:53:00,
2013-01-12 13:03:00,32.0,-51.0,-100.00,NW,309,12.0,21.0,0,0.00,,,0.01,189.000000,,2013-01-12 19:03:00,
2013-01-12 13:11:00,32.0,-51.0,-100.00,WNW,302,13.0,20.0,0,0.00,,,0.01,192.000000,,2013-01-12 19:11:00,
2013-01-12 13:33:00,32.0,-51.0,-100.00,WNW,302,13.0,20.0,0,0.00,,,0.01,192.000000,,2013-01-12 19:33:00,
2013-01-12 13:43:00,32.0,-51.0,-100.00,WNW,302,13.0,20.0,0,0.00,,,0.01,192.000000,,2013-01-12 19:43:00,
2013-01-12 13:53:00,32.0,-51.0,-100.00,WNW,302,13.0,20.0,0,0.00,,,0.01,192.000000,,2013-01-12 19:53:00,
2013-01-12 14:03:00,32.0,-51.0,-100.00,WNW,302,13.0,20.0,0,0.00,,,0.01,192.000000,,2013-01-12 20:03:00,
2013-01-12 14:11:00,32.0,-51.0,-100.00,NW,313,12.0,21.0,0,0.00,,,0.00,184.000000,,2013-01-12 20:11:00,
2013-01-12 14:33:00,32.0,-51.0,-100.00,NW,313,12.0,21.0,0,0.00,,,0.00,184.000000,,2013-01-12 20:33:00,
2013-01-12 14:43:00,32.0,-51.0,-100.00,NW,313,12.0,21.0,0,0.00,,,0.00,184.000000,,2013-01-12 20:43:00,
2013-01-12 14:53:00,32.0,-51.0,-100.00,NW,313,12.0,21.0,0,0.00,,,0.00,184.000000,,2013-01-12 20:53:00,
2013-01-12 15:03:00,32.0,-51.0,-100.00,NW,313,12.0,21.0,0,0.00,,,0.00,184.000000,,2013-01-12 21:03:00,
2013-01-12 15:11:00,32.0,-51.0,-100.00,NW,305,12.0,19.0,0,0.00,,,0.00,126.000000,,2013-01-12 21:11:00,
2013-01-12 15:33:00,32.0,-51.0,-100.00,NW,305,12.0,19.0,0,0.00,,,0.00,126.000000,,2013-01-12 21:33:00,
2013-01-12 15:43:00,32.0,-51.0,-100.00,NW,305,12.0,19.0,0,0.00,,,0.00,126.000000,,2013-01-12 21:43:00,
2013-01-12 15:53:00,32.0,-51.0,-100.00,NW,305,12.0,19.0,0,0.00,,,0.00,126.000000,,2013-01-12 21:53:00,
2013-01-12 16:03:00,32.0,-51.0,-100.00,NW,305,12.0,19.0,0,0.00,,,0.00,126.000000,,2013-01-12 22:03:00,
2013-01-12 16:11:00,32.0,-51.0,-100.00,WNW,299,10.0,19.0,0,0.00,,,0.00,118.000000,,2013-01-12 22:11:00,
2013-01-12 16:33:00,32.0,-51.0,-100.00,WNW,299,10.0,19.0,0,0.00,,,0.00,118.000000,,2013-01-12 22:33:00,
2013-01-12 16:43:00,32.0,-51.0,-100.00,WNW,299,10.0,19.0,0,0.00,,,0.00,118.000000,,2013-01-12 22:43:00,
2013-01-12 16:53:00,32.0,-51.0,-100.00,WNW,299,10.0,19.0,0,0.00,,,0.00,118.000000,,2013-01-12 22:53:00,
2013-01-12 17:03:00,32.0,-51.0,-100.00,WNW,299,10.0,19.0,0,0.00,,,0.00,118.000000,,2013-01-12 23:03:00,
2013-01-12 17:11:00,32.0,-51.0,-100.00,NW,316,11.0,22.0,0,0.00,,,0.00,50.000000,,2013-01-12 23:11:00,
2013-01-12 17:33:00,32.0,-51.0,-100.00,NW,316,11.0,22.0,0,0.00,,,0.00,50.000000,,2013-01-12 23:33:00,
2013-01-12 17:43:00,32.0,-51.0,-100.00,NW,316,11.0,22.0,0,0.00,,,0.00,50.000000,,2013-01-12 23:43:00,
2013-01-12 17:53:00,32.0,-51.0,-100.00,NW,316,11.0,22.0,0,0.00,,,0.00,50.000000,,2013-01-12 23:53:00,
2013-01-12 18:03:00,32.0,-51.0,-100.00,NW,316,11.0,22.0,0,0.00,,,0.00,50.000000,,2013-01-13 00:03:00,
2013-01-12 18:11:00,32.0,-51.0,-100.00,NW,307,9.0,20.0,0,0.00,,,0.00,1.000000,,2013-01-13 00:11:00,
2013-01-12 18:33:00,32.0,-51.0,-100.00,NW,307,9.0,20.0,0,0.00,,,0.00,1.000000,,2013-01-13 00:33:00,
2013-01-12 18:43:00,32.0,-51.0,-100.00,NW,307,9.0,20.0,0,0.00,,,0.00,1.000000,,2013-01-13 00:43:00,
2013-01-12 18:53:00,32.0,-51.0,-100.00,NW,307,9.0,20.0,0,0.00,,,0.00,1.000000,,2013-01-13 00:53:00,
2013-01-12 19:03:00,32.0,-51.0,-100.00,NW,307,9.0,20.0,0,0.00,,,0.00,1.000000,,2013-01-13 01:03:00,
2013-01-12 19:11:00,32.0,-51.0,-100.00,NW,321,8.0,19.0,0,0.00,,,0.00,0.000000,,2013-01-13 01:11:00,
2013-01-12 19:43:00,32.0,-51.0,-100.00,NW,321,8.0,19.0,0,0.00,,,0.00,0.000000,,2013-01-13 01:43:00,
2013-01-12 19:53:00,32.0,-51.0,-100.00,NW,321,8.0,19.0,0,0.00,,,0.00,0.000000,,2013-01-13 01:53:00,
2013-01-12 20:02:00,32.0,-51.0,-100.00,NW,321,8.0,19.0,0,0.00,,,0.00,0.000000,,2013-01-13 02:02:00,
2013-01-12 20:11:00,32.0,-51.0,-100.00,NW,321,10.0,18.0,0,0.00,,,0.00,0.000000,,2013-01-13 02:11:00,
2013-01-12 20:33:00,32.0,-51.0,-100.00,NW,321,10.0,18.0,0,0.00,,,0.00,0.000000,,2013-01-13 02:33:00,
2013-01-12 20:43:00,32.0,-51.0,-100.00,NW,321,10.0,18.0,0,0.00,,,0.00,0.000000,,2013-01-13 02:43:00,
2013-01-12 20:53:00,32.0,-51.0,-100.00,NW,321,10.0,18.0,0,0.00,,,0.00,0.000000,,2013-01-13 02:53:00,
2013-01-12 21:02:00,32.0,-51.0,-100.00,NW,321,10.0,18.0,0,0.00,,,0.00,0.000000,,2013-01-13 03:02:00,
2013-01-12 21:11:00,32.0,-51.0,-100.00,NW,317,8.0,17.0,0,0.00,,,0.00,0.000000,,2013-01-13 03:11:00,
2013-01-12 21:33:00,32.0,-51.0,-100.00,NW,317,8.0,17.0,0,0.00,,,0.00,0.000000,,2013-01-13 03:33:00,
2013-01-12 21:43:00,32.0,-51.0,-100.00,NW,317,8.0,17.0,0,0.00,,,0.00,0.000000,,2013-01-13 03:43:00,
2013-01-12 21:53:00,32.0,-51.0,-100.00,NW,317,8.0,17.0,0,0.00,,,0.00,0.000000,,2013-01-13 03:53:00,
2013-01-12 22:02:00,32.0,-51.0,-100.00,NW,317,8.0,17.0,0,0.00,,,0.00,0.000000,,2013-01-13 04:02:00,
2013-01-12 22:11:00,32.0,-51.0,-100.00,NNW,327,10.0,17.0,0,0.00,,,0.00,0.000000,,2013-01-13 04:11:00,
2013-01-12 22:33:00,32.0,-51.0,-100.00,NNW,327,10.0,17.0,0,0.00,,,0.00,0.000000,,2013-01-13 04:33:00,
2013-01-12 22:43:00,32.0,-51.0,-100.00,NNW,327,10.0,17.0,0,0.00,,,0.00,0.000000,,2013-01-13 04:43:00,
2013-01-12 22:53:00,32.0,-51.0,-100.00,NNW,327,10.0,17.0,0,0.00,,,0.00,0.000000,,2013-01-13 04:53:00,
2013-01-12 23:03:00,32.0,-51.0,-100.00,NNW,327,10.0,17.0,0,0.00,,,0.00,0.000000,,2013-01-13 05:03:00,
2013-01-12 23:11:00,32.0,-51.0,-100.00,NNW,327,7.0,15.0,0,0.00,,,0.00,0.000000,,2013-01-13 05:11:00,
2013-01-12 23:33:00,32.0,-51.0,-100.00,NNW,327,7.0,15.0,0,0.00,,,0.00,0.000000,,2013-01-13 05:33:00,
2013-01-12 23:42:00,32.0,-51.0,-100.00,NNW,327,7.0,15.0,0,0.00,,,0.00,0.000000,,2013-01-13 05:42:00,
2013-01-12 23:53:00,32.0,-51.0,-100.00,NNW,327,7.0,15.0,0,0.00,,,0.00,0.000000,,2013-01-13 05:53:00,